Home   Weather   Stellenbosch   Past weeks

Flag for South Africa Past Weather in Stellenbosch, South Africa — Yesterday and Last 2 Weeks

Now
61 °F

Clear.


Feels Like: 61 °F
Forecast: 61 / 87 °F
Wind: 9 mph from South

Location: Cape Town International Airport

Current Time: Dec 11, 2016 at 4:18:39 am

Latest Report: Dec 11, 2016 at 3:00 am


Visibility: 10 mi

Pressure: 29.98 "Hg

Humidity: 72%

Dew Point: 52 °F

Location of StellenboschLocation

Past Weather in Stellenbosch — Graph

°F

Stellenbosch Temperature Yesterday

Maximum temperature yesterday: 75 °F (at 11:00 am)
Minimum temperature yesterday: 57 °F (at 5:00 am)
Average temperature yesterday: 68 °F

High & Low Weather Summary for the Past Weeks

 TemperatureHumidityPressure
High88 °F (Nov 27, 12:00 pm)94% (Dec 9, 7:00 am)30.15 "Hg (Dec 9, 7:00 am)
Low57 °F (Nov 27, 6:00 am)31% (Nov 27, 11:00 am)29.77 "Hg (Nov 27, 3:00 pm)
Average68 °F65%29.97 "Hg
* Reported Nov 26 3:00 am — Dec 11 3:00 am, Stellenbosch, Weather by CustomWeather, © 2016

Note: Actual official high and low records may vary slightly from our data, if they occured in-between our weather recording intervals... More about our weather records

Advertising

Stellenbosch Weather History for the Previous 24 Hours

Scroll right to see more
 ConditionsComfort  
Time TempWeatherWind HumidityBarometerVisibility
3:00 am
Sun, Dec 11
61 °FClear.9 mph72%29.98 "Hg10 mi
2:00 am63 °FClear.6 mph68%30.01 "Hg10 mi
1:00 am63 °FClear.9 mph73%30.01 "Hg10 mi
12:00 am64 °FClear.12 mph73%30.04 "Hg10 mi
11:00 pm
Sat, Dec 10
64 °FClear.15 mph73%30.04 "Hg10 mi
10:00 pm66 °FClear.15 mph64%30.04 "Hg10 mi
9:00 pm68 °FPassing clouds.16 mph60%30.04 "HgN/A
8:00 pm68 °FPassing clouds.15 mph60%30.01 "HgN/A
7:00 pm70 °FPassing clouds.16 mph60%30.01 "HgN/A
6:00 pm72 °FPassing clouds.17 mph53%29.98 "HgN/A
5:00 pm73 °FPassing clouds.22 mph50%29.98 "HgN/A
4:00 pm73 °FPassing clouds.24 mph53%30.01 "HgN/A
3:00 pm75 °FPassing clouds.23 mph50%30.01 "HgN/A
2:00 pm75 °FPassing clouds.20 mph47%30.01 "HgN/A
1:00 pm75 °FPassing clouds.18 mph47%30.01 "HgN/A
12:00 pm75 °FSunny.16 mph44%30.04 "Hg10 mi
11:00 am75 °FSunny.6 mph41%30.01 "Hg10 mi
10:00 am72 °FSunny.16 mph47%30.04 "Hg10 mi
9:00 am70 °FSunny.14 mph53%30.04 "Hg10 mi
8:00 am66 °FPassing clouds.10 mph60%30.04 "HgN/A
7:00 am63 °FSunny.15 mph68%30.04 "Hg10 mi
6:00 am59 °FSunny.10 mph72%30.04 "Hg10 mi
5:00 am57 °FClear.8 mph77%30.04 "Hg10 mi
4:00 am59 °FClear.10 mph72%30.01 "Hg10 mi
Weather by CustomWeather, © 2016

See weather overviewHow to use our weather pages